Astoria, OR

9:45 PM PST on November 17, 2019 (GMT -0800)
Astoria Regional

Weather History for KAST - October, 2019

Change the Weather History Date:

Sunday, October 20, 2019

  Actual Average Record
Temperature  
Mean Temperature 52 °F 52 °F  
Max Temperature 57 °F 60 °F 76 °F (1938)
Min Temperature 47 °F 44 °F 33 °F (1949)
Degree Days  
Heating Degree Days 13 13  
Month to date heating degree days 273 228  
Since 1 July heating degree days 566 709  
Cooling Degree Days 0 0  
Month to date cooling degree days 0 0  
Year to date cooling degree days 23 12  
Growing Degree Days 2 (Base 50)    
Moisture  
Dew Point 49 °F    
Average Humidity 86    
Maximum Humidity 100    
Minimum Humidity 72    
Precipitation  
Precipitation 0.15 in 0.22 in 2.27 in (1940)
Month to date precipitation 5.66 3.23  
Year to date precipitation 37.46 43.47  
Sea Level Pressure  
Sea Level Pressure 30.02 in    
Wind  
Wind Speed 7 mph (SSE)    
Max Wind Speed 24 mph    
Max Gust Speed 32 mph    
Visibility 7 miles    
Events Rain    
T = Trace of Precipitation, MM = Missing Value Source: NWS Daily Summary

Daily Weather History Graph

Daily Weather History Graph

Search for Another Location

Airport or City:

Astronomy

Oct. 20, 2019 Rise Set
Actual Time 7:39 AM PDT 6:20 PM PDT
Civil Twilight 7:08 AM PDT 6:51 PM PDT
Nautical Twilight 6:33 AM PDT 7:25 PM PDT
Astronomical Twilight 5:59 AM PDT 8:00 PM PDT
Moon 11:22 PM PDT (10/20) 2:25 PM PDT (10/20)
Length of Visible Light 11h 42m
Length of Day
10h 41m
Waning Gibbous, 58% of the Moon is Illuminated
Oct 20
Waning Gibbous
Oct 21
Last Quarter
Oct 27
New
Nov 4
First Quarter
Nov 12
Full

Hourly Weather History & Observations

Time (PDT) Temp. Dew Point Humidity Pressure Visibility Wind Dir Wind Speed Gust Speed Precip Events Conditions
12:55 AM 46.9 °F 46.0 °F 97% 30.07 in 10.0 mi ESE 5.8 mph - 0.01 in   Scattered Clouds
1:29 AM 46.9 °F 46.0 °F 97% 30.07 in 10.0 mi East 4.6 mph - N/A   Mostly Cloudy
1:55 AM 46.9 °F 46.0 °F 97% 30.07 in 10.0 mi SE 3.5 mph - N/A   Clear
2:55 AM 46.9 °F 46.0 °F 97% 30.07 in 10.0 mi East 4.6 mph - N/A   Partly Cloudy
3:55 AM 48.0 °F 46.0 °F 93% 30.05 in 10.0 mi ESE 5.8 mph - N/A   Overcast
4:55 AM 48.0 °F 46.0 °F 93% 30.02 in 10.0 mi Calm Calm - N/A   Overcast
5:55 AM 48.0 °F 46.0 °F 93% 30.02 in 10.0 mi East 4.6 mph - N/A   Mostly Cloudy
6:55 AM 48.9 °F 46.9 °F 93% 30.02 in 10.0 mi SE 3.5 mph - 0.00 in Rain Light Rain
7:23 AM 48.9 °F 46.9 °F 93% 30.01 in 10.0 mi ESE 4.6 mph - 0.02 in Rain Light Rain
7:55 AM 48.9 °F 46.9 °F 93% 30.01 in 5.0 mi SE 6.9 mph - 0.04 in Rain Light Rain
8:19 AM 48.9 °F 48.0 °F 97% 30.00 in 1.8 mi SSE 5.8 mph - 0.03 in Rain Light Rain
8:33 AM 50.0 °F 48.0 °F 93% 29.99 in 2.0 mi SSE 6.9 mph - 0.04 in Rain Light Rain
8:51 AM 50.0 °F 48.2 °F 94% 29.99 in 3.0 mi East 5.8 mph - 0.05 in Rain Light Rain
8:55 AM 48.9 °F 48.0 °F 97% 29.99 in 3.0 mi East 5.8 mph - 0.06 in Rain Light Rain
9:09 AM 48.9 °F 48.0 °F 97% 29.98 in 2.5 mi East 5.8 mph - 0.00 in Rain Light Rain
9:18 AM 48.9 °F 48.0 °F 97% 29.99 in 3.0 mi East 5.8 mph - 0.01 in Rain Light Rain
9:26 AM 48.9 °F 48.0 °F 97% 29.99 in 2.5 mi East 6.9 mph - 0.02 in Rain Light Rain
9:43 AM 48.9 °F 48.0 °F 97% 29.98 in 4.0 mi East 10.4 mph - 0.02 in Rain Light Rain
9:55 AM 48.9 °F 48.0 °F 97% 29.98 in 6.0 mi East 9.2 mph - 0.03 in   Overcast
10:55 AM 51.1 °F 48.9 °F 92% 29.97 in 10.0 mi East 5.8 mph - 0.00 in   Overcast
11:55 AM 52.0 °F 50.0 °F 93% 29.96 in 10.0 mi NNE 5.8 mph - N/A   Overcast
12:55 PM 57.0 °F 52.0 °F 83% 29.94 in 10.0 mi South 13.8 mph 21.9 mph N/A   Overcast
1:55 PM 57.0 °F 54.0 °F 89% 29.93 in 4.0 mi SSW 15.0 mph - 0.00 in Rain Light Rain
2:17 PM 57.0 °F 55.0 °F 93% 29.94 in 1.8 mi SSW 16.1 mph 24.2 mph 0.01 in Rain Light Rain
2:21 PM 57.0 °F 55.0 °F 93% 29.95 in 1.2 mi SW 18.4 mph 32.2 mph 0.01 in Rain Light Rain
2:27 PM 55.9 °F 54.0 °F 93% 29.95 in 1.5 mi WNW 12.7 mph 32.2 mph 0.02 in Rain Light Rain
2:32 PM 55.9 °F 55.0 °F 97% 29.95 in 3.0 mi West 13.8 mph 32.2 mph 0.02 in Rain Light Rain
2:55 PM 55.9 °F 54.0 °F 93% 29.96 in 9.0 mi West 10.4 mph - 0.02 in   Overcast
3:29 PM 55.9 °F 51.1 °F 84% 30.00 in 9.0 mi West 12.7 mph 26.5 mph N/A   Overcast
3:55 PM 55.9 °F 48.9 °F 77% 30.01 in 9.0 mi West 16.1 mph 23.0 mph N/A   Overcast
4:55 PM 55.9 °F 46.9 °F 72% 30.03 in 10.0 mi WSW 10.4 mph - N/A   Overcast
5:55 PM 55.0 °F 48.0 °F 77% 30.04 in 10.0 mi SW 6.9 mph - N/A   Overcast
6:55 PM 54.0 °F 48.0 °F 80% 30.06 in 10.0 mi WSW 6.9 mph - N/A   Overcast
7:55 PM 54.0 °F 48.0 °F 80% 30.09 in 10.0 mi SW 5.8 mph - N/A   Overcast
8:55 PM 55.0 °F 46.9 °F 74% 30.11 in 10.0 mi SW 6.9 mph - N/A   Overcast
9:55 PM 54.0 °F 48.0 °F 80% 30.12 in 10.0 mi Calm Calm - N/A   Overcast
10:55 PM 53.1 °F 48.9 °F 86% 30.13 in 10.0 mi SSE 5.8 mph - 0.00 in   Overcast
11:55 PM 54.0 °F 50.0 °F 86% 30.15 in 9.0 mi SSW 4.6 mph - 0.00 in   Overcast